Home   Weather   Gänserndorf   Past weeks

Flag for Austria Past Weather in Gänserndorf, Lower Austria, Austria — Yesterday and Last 2 Weeks

51 °F

Passing clouds.

Feels Like: 50 °F
Forecast: 46 / 60 °F
Wind: 5 mph from Southeast

Location: Wien / Schwechat-Flughafen

Current Time: Oct 23, 2016 at 8:05:39 PM

Latest Report: Oct 23, 2016 at 7:00 PM

Visibility: 11 mi

Pressure: 30.03 "Hg

Humidity: 83%

Dew Point: 46 °F

Location of GänserndorfLocation

Past Weather in Gänserndorf — Graph


Gänserndorf Temperature Yesterday

Maximum temperature yesterday: 54 °F (at 4:00 PM)
Minimum temperature yesterday: 37 °F (at 8:00 AM)
Average temperature yesterday: 46 °F

High & Low Weather Summary for the Past Weeks

High65 °F (Oct 16, 3:00 PM)100% (Oct 20, 11:00 PM)30.37 "Hg (Oct 20, 11:00 PM)
Low37 °F (Oct 22, 8:00 AM)53% (Oct 22, 2:00 PM)29.91 "Hg (Oct 12, 4:00 AM)
Average48 °F86%30.10 "Hg
* Reported Oct 8 7:00 PM — Oct 23 7:00 PM, Gänserndorf, Weather by CustomWeather, © 2016

Note: Actual official high and low records may vary slightly from our data, if they occured in-between our weather recording intervals... More about our weather records


Gänserndorf Weather History for the Previous 24 Hours

Scroll right to see more
Time TempWeatherWind HumidityBarometerVisibility
7:00 PM
Sun, Oct 23
51 °FPassing clouds.5 mph83%30.03 "Hg11 mi
6:00 PM52 °FPassing clouds.7 mph80%30.02 "Hg22 mi
5:00 PM54 °FPassing clouds.9 mph75%30.01 "Hg18 mi
4:00 PM54 °FPartly sunny.7 mph76%30.01 "Hg16 mi
2:00 PM47 °FOvercast.7 mph89%30.05 "Hg9 mi
1:00 PM45 °FLow clouds.7 mph90%30.05 "Hg6 mi
12:00 PM44 °FLow clouds.9 mph94%30.07 "Hg3 mi
11:00 AM44 °FLow clouds.7 mph95%30.06 "Hg4 mi
10:00 AM43 °FLow clouds.7 mph96%30.06 "Hg2 mi
9:00 AM42 °FLow clouds.6 mph97%30.06 "Hg2 mi
8:00 AM42 °FLow clouds.7 mph97%30.05 "Hg2 mi
7:00 AM42 °FLow clouds.7 mph96%30.04 "Hg2 mi
6:00 AM42 °FPassing clouds.5 mph96%30.04 "Hg4 mi
5:00 AM41 °FPassing clouds.5 mph96%30.04 "Hg5 mi
4:00 AM42 °FPassing clouds.6 mph94%30.04 "Hg5 mi
3:00 AM42 °FPassing clouds.6 mph93%30.04 "Hg6 mi
2:00 AM42 °FPassing clouds.N/A93%30.04 "Hg7 mi
1:00 AM41 °FPassing clouds.3 mph93%30.04 "Hg7 mi
12:00 AM42 °FPassing clouds.3 mph88%30.04 "Hg17 mi
11:00 PM
Sat, Oct 22
43 °FPassing clouds.5 mph88%30.05 "Hg19 mi
10:00 PM45 °FPassing clouds.6 mph87%30.03 "Hg19 mi
9:00 PM44 °FPassing clouds.6 mph89%30.02 "Hg19 mi
8:00 PM46 °FPassing clouds.6 mph86%30.01 "Hg28 mi
Weather by CustomWeather, © 2016

See weather overviewHow to use our weather pages